Lester, WV

1:48 PM EDT on August 29, 2015 (GMT -0400)
Fairdale | | Change Station
CLOSE
Current Station
Personal Weather Station
Location: Lester, WV
Elevation: 1938 ft
Nearby Weather Stations

Elev 1938 ft 37.74 °N, 81.35 °W | Updated 26 seconds ago

Partly Cloudy
Partly Cloudy
89.6 °F
Feels Like 87 °F
N
0.0
Wind Variable Wind from West
Gusts 0.0 mph

Today
High -- | Low -- °F
--% Chance of Precip.
Yesterday
High -- | Low -- °F
Precip. -- in
6:52 AM 7:59 PM
Full, 100% visible
Pressure 30.19 in
Visibility 10.0 miles
Clouds Few 3700 ft
Heat Index 87 °F
Dew Point 49 °F
Humidity 25%
Rainfall 0.00 in
Snow Depth Not available.
UV 10 out of 12
Pollen 9.50 out of 12
Air Quality Not available.
Flu Activity Not available.
METAR KBKW 291651Z AUTO 26006KT 10SM FEW037 26/16 A3028 RMK AO2 SLP221 T02560156
Pressure 30.19 in
Visibility 10.0 miles
Clouds Few 3700 ft
Heat Index 87 °F
Dew Point 49 °F
Humidity 25%
Rainfall 0.00 in
Snow Depth Not available.
UV 10 out of 12
Pollen 9.50 out of 12
Air Quality Not available.
Flu Activity Not available.
METAR KBKW 291651Z AUTO 26006KT 10SM FEW037 26/16 A3028 RMK AO2 SLP221 T02560156

10-Day Weather Forecast

×

Almanac

Astronomy

Aug. 29, 2015 Rise Set
Actual Time
Civil Twilight
Nautical Twilight
Astronomical Twilight
Moon
Length of Visible Light
Length of Day
Tomorrow will be .
, % of the Moon is Illuminated

Today's Extremes

State Highs State Lows

Community

WunderPhotos

Upload Photos

1,850,743 photos uploaded!

WunderBlogs® & News

Nearby

Air Quality

  Air Quality AQ Index Pollutant
Not available.

Snow Depth

Station Depth Elevation

Earthquake Activity

City Distance Mag. Time & Date
Minimum magnitude displayed is 2.5.

Coastal Water Temperatures

Place Temperature

Stations

Nearby Weather Stations

Station Location Temp. Windchill Dew Point Humidity Wind Precip. Elev Updated Type